Regional Weather Roundup
Issued by NWS

Home | Current Version | Previous Version | Text Only | Print | Product List | Glossary Off
Versions: 1 2 3 4 5 6 7 8 9 10 11 12 13 14 15 16 17 18 19 20 21 22 23 24 25 26 27 28 29 30 31 32 33 34 35 36 37 38 39 40 41 42 43 44 45 46 47 48 49 50

086
ASUS44 KLIX 280501
RWRLA
LOUISIANA WEATHER ROUNDUP
NATIONAL WEATHER SERVICE NEW ORLEANS LA
1100 PM CST THU NOV 27 2014

NOTE: "FAIR" INDICATES FEW OR NO CLOUDS BELOW 12,000 FEET WITH NO
      SIGNIFICANT WEATHER AND/OR OBSTRUCTIONS TO VISIBILITY.
      SKY/WX - SKY CONDITION AND SIGNIFICANT WEATHER.
      TMP - AIR TEMPERATURE.    DP   - DEWPOINT TEMPERATURE.
      RH  - RELATIVE HUMIDITY.  PRES - PRESSURE.
      HX  - HEAT INDEX.         WCI  - WIND CHILL INDEX.

*  THESE STATIONS ARE NOT NWS OR FAA STATIONS AND ARE NOT UNDER
   NWS QUALITY CONTROL.

LAZ040-048-061>063-065-066-069-280600-
SOUTHEAST LOUISIANA

CITY           SKY/WX    TMP DP  RH WIND       PRES   REMARKS
N.O. AUDUBON     N/A     49  33  53 MISG        N/A
N.O. INTL ARPT CLEAR     50  34  54 NE9       30.44F
N.O. LAKEFRONT CLEAR     52  35  52 NE17      30.45S
N.O. DOWNTOWN* FAIR      50  30  46 NE6       30.44F
SLIDELL        CLEAR     37  33  85 CALM      30.44F
BATON ROUGE    CLEAR     41  32  70 NE3       30.45S
BOOTHVILLE     CLEAR     53  39  59 N8        30.44S
BELLE CHASSE   CLEAR     45  33  63 NE6       30.44F
BOGALUSA*        N/A     35  32  90 N5        30.47F WCI  31
NEW ROADS*     NOT AVBL
GONZALES*      NOT AVBL
HAMMOND*       NOT AVBL
HOUMA*         CLEAR     40  36  86 CALM      30.44S
PORT FOURCHON* CLEAR     54  39  58 NE12      30.46F

$$

LAZ041-044-053-054-280600-
SOUTHWEST LOUISIANA

CITY           SKY/WX    TMP DP  RH WIND       PRES   REMARKS
LAKE CHARLES   CLEAR     45  36  70 E7        30.43F
LAFAYETTE      CLEAR     42  34  73 NE5       30.45F
PATTERSON      CLEAR     41  37  87 CALM      30.46S
SALT POINT       N/A     49  38  65 CALM      30.43F
NEW IBERIA     CLEAR     44  35  70 NE8       30.45F
CHENAULT AIRPK CLEAR     45  37  73 E5        30.44F

$$

LAZ027-028-280600-
CENTRAL LOUISIANA

CITY           SKY/WX    TMP DP  RH WIND       PRES   REMARKS
FORT POLK      CLEAR     42  34  73 E3        30.43S
ALEXANDRIA INT CLEAR     42  33  70 E6        30.44F
ALEXANDRIA     CLEAR     35  32  88 CALM      30.46F

$$

LAZ001-002-280600-
NORTHWEST LOUISIANA

CITY           SKY/WX    TMP DP  RH WIND       PRES   REMARKS
SHREVEPORT     CLEAR     41  33  73 CALM      30.43S
BARKSDALE AFB  CLEAR     38  30  74 SE5       30.43F WCI  34
DTN SHREVEPORT CLEAR     41  30  65 SE5       30.43F

$$

LAZ014-016-280600-
NORTHEAST LOUISIANA

CITY           SKY/WX    TMP DP  RH WIND       PRES   REMARKS
MONROE         CLEAR     38  33  82 CALM      30.47F
TALLULAH       CLEAR     31  30  96 CALM      30.48F

$$




USA.gov is the U.S. government's official web portal to all federal, state and local government web resources and services.